| time (UTC) | temp C | wind direction | speed KPH | gust KPH | rain 1hr cm | rain 24hr cm | rain mn cm | humidity % | barometer mb |
| 20260510183002 | 16 | 225 | 19.3 | 0.0 | 0.00 | 0.00 | 0.13 | 41 | 1010.8 |
| 20260510182502 | 16 | 248 | 12.9 | 0.0 | 0.00 | 0.00 | 0.13 | 43 | 1010.5 |
| 20260510182002 | 17 | 248 | 12.9 | 0.0 | 0.00 | 0.00 | 0.13 | 40 | 1010.5 |
| 20260510181501 | 16 | 315 | 12.9 | 0.0 | 0.00 | 0.00 | 0.13 | 41 | 1010.5 |
| 20260510181001 | 16 | 270 | 19.3 | 0.0 | 0.00 | 0.00 | 0.13 | 42 | 1010.5 |
| 20260510180001 | 17 | 270 | 11.3 | 0.0 | 0.00 | 0.00 | 0.13 | 41 | 1010.5 |
| 20260510175502 | 16 | 180 | 12.9 | 0.0 | 0.00 | 0.00 | 0.13 | 42 | 1010.5 |
| 20260510175002 | 17 | 270 | 25.7 | 0.0 | 0.00 | 0.00 | 0.13 | 40 | 1010.5 |
| 20260510174502 | 17 | 270 | 17.7 | 0.0 | 0.00 | 0.00 | 0.13 | 39 | 1010.2 |
| 20260510174001 | 17 | 270 | 9.7 | 0.0 | 0.00 | 0.00 | 0.13 | 40 | 1010.2 |
| 20260510173502 | 17 | 293 | 17.7 | 0.0 | 0.00 | 0.00 | 0.13 | 40 | 1010.2 |
| 20260510173002 | 17 | 203 | 8.0 | 0.0 | 0.00 | 0.00 | 0.13 | 40 | 1010.2 |
| 20260510172502 | 16 | 270 | 17.7 | 0.0 | 0.00 | 0.00 | 0.13 | 40 | 1010.2 |
| 20260510172003 | 16 | 270 | 22.5 | 0.0 | 0.00 | 0.00 | 0.13 | 40 | 1010.2 |
| 20260510171501 | 17 | 270 | 30.6 | 0.0 | 0.00 | 0.00 | 0.13 | 38 | 1010.2 |
| 20260510170501 | 17 | 270 | 14.5 | 0.0 | 0.00 | 0.00 | 0.13 | 37 | 1010.2 |
| 20260510170001 | 16 | 270 | 14.5 | 0.0 | 0.00 | 0.00 | 0.13 | 37 | 1010.2 |
| 20260510165502 | 17 | 248 | 6.4 | 0.0 | 0.00 | 0.00 | 0.13 | 38 | 1010.2 |
| 20260510164501 | 16 | 225 | 12.9 | 0.0 | 0.00 | 0.00 | 0.13 | 38 | 1009.8 |
| 20260510164001 | 16 | 270 | 27.4 | 0.0 | 0.00 | 0.00 | 0.13 | 37 | 1010.2 |
| 20260510163503 | 16 | 225 | 25.7 | 0.0 | 0.00 | 0.00 | 0.13 | 37 | 1010.2 |
| 20260510163002 | 16 | 270 | 37.0 | 0.0 | 0.00 | 0.00 | 0.13 | 36 | 1009.8 |
| 20260510162502 | 16 | 180 | 11.3 | 0.0 | 0.00 | 0.00 | 0.13 | 37 | 1009.8 |
| 20260510162002 | 17 | 180 | 8.0 | 0.0 | 0.00 | 0.00 | 0.13 | 37 | 1009.8 |
| 20260510161501 | 16 | 270 | 12.9 | 0.0 | 0.00 | 0.00 | 0.13 | 37 | 1010.2 |
| 20260510161001 | 17 | 248 | 6.4 | 0.0 | 0.00 | 0.00 | 0.13 | 38 | 1009.8 |
| 20260510160502 | 17 | 248 | 4.8 | 0.0 | 0.00 | 0.00 | 0.13 | 39 | 1009.8 |
| 20260510160002 | 16 | 203 | 6.4 | 0.0 | 0.00 | 0.00 | 0.13 | 40 | 1009.8 |
| 20260510154002 | 16 | 270 | 11.3 | 0.0 | 0.00 | 0.00 | 0.13 | 44 | 1009.8 |
| 20260510153502 | 16 | 270 | 12.9 | 0.0 | 0.00 | 0.00 | 0.13 | 46 | 1009.8 |
| 20260510153002 | 15 | 225 | 12.9 | 0.0 | 0.00 | 0.00 | 0.13 | 48 | 1009.8 |
| 20260510152501 | 16 | 248 | 17.7 | 0.0 | 0.00 | 0.00 | 0.13 | 49 | 1009.8 |
| 20260510152001 | 16 | 293 | 16.1 | 0.0 | 0.00 | 0.00 | 0.13 | 47 | 1009.8 |
| 20260510151502 | 16 | 293 | 17.7 | 0.0 | 0.00 | 0.00 | 0.13 | 48 | 1009.8 |
| 20260510151002 | 16 | 248 | 6.4 | 0.0 | 0.00 | 0.00 | 0.13 | 48 | 1009.8 |
| 20260510150502 | 16 | 270 | 6.4 | 0.0 | 0.00 | 0.00 | 0.13 | 50 | 1009.8 |
| 20260510150001 | 16 | 203 | 9.7 | 0.0 | 0.00 | 0.00 | 0.13 | 50 | 1009.5 |
| 20260510145501 | 16 | 293 | 11.3 | 0.0 | 0.00 | 0.00 | 0.13 | 50 | 1009.8 |
| 20260510145002 | 16 | 248 | 11.3 | 0.0 | 0.00 | 0.00 | 0.13 | 49 | 1009.8 |
| 20260510144502 | 16 | 270 | 9.7 | 0.0 | 0.00 | 0.00 | 0.13 | 51 | 1009.5 |
| 20260510144001 | 15 | 225 | 12.9 | 0.0 | 0.00 | 0.00 | 0.13 | 50 | 1009.5 |
| 20260510143502 | 15 | 203 | 12.9 | 0.0 | 0.00 | 0.00 | 0.13 | 50 | 1009.5 |
| 20260510143002 | 16 | 180 | 11.3 | 0.0 | 0.00 | 0.00 | 0.13 | 51 | 1009.5 |
| 20260510142001 | 16 | 270 | 27.4 | 0.0 | 0.00 | 0.00 | 0.13 | 48 | 1009.1 |
| 20260510141502 | 16 | 270 | 8.0 | 0.0 | 0.00 | 0.00 | 0.13 | 45 | 1009.1 |
| 20260510141001 | 15 | 270 | 6.4 | 0.0 | 0.00 | 0.00 | 0.13 | 53 | 1009.1 |
| 20260510140502 | 15 | 203 | 9.7 | 0.0 | 0.00 | 0.00 | 0.13 | 53 | 1009.1 |
| 20260510135502 | 15 | 203 | 9.7 | 0.0 | 0.00 | 0.00 | 0.13 | 55 | 1009.1 |
| 20260510134502 | 15 | 225 | 9.7 | 0.0 | 0.00 | 0.00 | 0.13 | 58 | 1009.1 |
| 20260510134001 | 15 | 225 | 6.4 | 0.0 | 0.00 | 0.00 | 0.13 | 58 | 1009.1 |
| 20260510133502 | 15 | 203 | 9.7 | 0.0 | 0.00 | 0.00 | 0.13 | 62 | 1009.1 |
| 20260510133002 | 13 | 203 | 6.4 | 0.0 | 0.00 | 0.00 | 0.13 | 65 | 1009.1 |
| 20260510132502 | 13 | 180 | 11.3 | 0.0 | 0.00 | 0.00 | 0.13 | 65 | 1008.8 |
| 20260510131502 | 13 | 225 | 3.2 | 0.0 | 0.00 | 0.00 | 0.13 | 68 | 1008.8 |
| 20260510131001 | 13 | 248 | 6.4 | 0.0 | 0.00 | 0.00 | 0.13 | 66 | 1008.8 |
| 20260510130502 | 13 | 203 | 4.8 | 0.0 | 0.00 | 0.00 | 0.13 | 67 | 1008.8 |
| 20260510130002 | 12 | 248 | 4.8 | 0.0 | 0.00 | 0.00 | 0.13 | 68 | 1008.8 |
| 20260510125502 | 12 | 225 | 4.8 | 0.0 | 0.00 | 0.00 | 0.13 | 66 | 1008.5 |
| 20260510125001 | 13 | 270 | 8.0 | 0.0 | 0.00 | 0.00 | 0.13 | 66 | 1008.5 |
| 20260510124502 | 13 | 270 | 6.4 | 0.0 | 0.00 | 0.00 | 0.13 | 67 | 1008.5 |
| 20260510124002 | 13 | 203 | 8.0 | 0.0 | 0.00 | 0.00 | 0.13 | 68 | 1008.5 |
| 20260510123502 | 13 | 180 | 14.5 | 0.0 | 0.00 | 0.00 | 0.13 | 69 | 1008.5 |
| 20260510123002 | 12 | 225 | 4.8 | 0.0 | 0.00 | 0.00 | 0.13 | 70 | 1008.5 |
| 20260510122502 | 12 | 203 | 6.4 | 0.0 | 0.00 | 0.00 | 0.13 | 72 | 1008.5 |
| 20260510122002 | 12 | 225 | 8.0 | 0.0 | 0.00 | 0.00 | 0.13 | 75 | 1008.5 |
| 20260510121502 | 12 | 248 | 3.2 | 0.0 | 0.00 | 0.00 | 0.13 | 82 | 1008.5 |
| 20260510120501 | 12 | 203 | 4.8 | 0.0 | 0.00 | 0.00 | 0.13 | 86 | 1008.1 |
| 20260510120001 | 12 | 225 | 4.8 | 0.0 | 0.00 | 0.00 | 0.13 | 87 | 1008.5 |
| 20260510115501 | 12 | 180 | 4.8 | 0.0 | 0.00 | 0.00 | 0.13 | 86 | 1008.1 |
| 20260510115002 | 12 | 158 | 6.4 | 0.0 | 0.00 | 0.00 | 0.13 | 87 | 1008.1 |
| 20260510114502 | 11 | 90 | 4.8 | 0.0 | 0.00 | 0.00 | 0.13 | 91 | 1008.1 |
| 20260510113502 | 11 | 203 | 6.4 | 0.0 | 0.00 | 0.00 | 0.13 | 90 | 1007.8 |
| 20260510113001 | 12 | 180 | 8.0 | 0.0 | 0.00 | 0.00 | 0.13 | 90 | 1008.1 |
| 20260510112502 | 12 | 203 | 6.4 | 0.0 | 0.00 | 0.00 | 0.13 | 90 | 1008.1 |
| 20260510112002 | 12 | 113 | 8.0 | 0.0 | 0.00 | 0.00 | 0.13 | 91 | 1007.8 |
| 20260510111502 | 11 | 135 | 4.8 | 0.0 | 0.00 | 0.00 | 0.13 | 93 | 1007.8 |
| 20260510111002 | 11 | 225 | 4.8 | 0.0 | 0.00 | 0.00 | 0.13 | 95 | 1007.8 |
| 20260510110502 | 11 | 158 | 8.0 | 0.0 | 0.00 | 0.00 | 0.13 | 97 | 1007.5 |
| 20260510105502 | 10 | 180 | 3.2 | 0.0 | 0.00 | 0.00 | 0.13 | 98 | 1007.1 |
| 20260510104002 | 10 | 180 | 6.4 | 0.0 | 0.00 | 0.00 | 0.13 | 98 | 1007.5 |
| 20260510103501 | 10 | 203 | 3.2 | 0.0 | 0.00 | 0.00 | 0.13 | 98 | 1007.5 |
| 20260510103001 | 10 | 180 | 8.0 | 0.0 | 0.00 | 0.00 | 0.13 | 98 | 1007.5 |
| 20260510102501 | 10 | 158 | 3.2 | 0.0 | 0.00 | 0.00 | 0.13 | 98 | 1007.5 |
| 20260510102002 | 10 | 203 | 3.2 | 0.0 | 0.00 | 0.00 | 0.13 | 98 | 1007.1 |
| 20260510101502 | 10 | 180 | 8.0 | 0.0 | 0.00 | 0.00 | 0.13 | 98 | 1007.1 |
| 20260510100502 | 10 | 203 | 4.8 | 0.0 | 0.00 | 0.00 | 0.13 | 98 | 1006.8 |
| 20260510100001 | 10 | 203 | 4.8 | 0.0 | 0.00 | 0.00 | 0.13 | 99 | 1006.8 |
| 20260510095002 | 10 | 225 | 8.0 | 0.0 | 0.00 | 0.00 | 0.13 | 99 | 1006.8 |
| 20260510094501 | 10 | 203 | 4.8 | 0.0 | 0.00 | 0.00 | 0.13 | 99 | 1006.8 |
| 20260510094002 | 10 | 225 | 3.2 | 0.0 | 0.00 | 0.00 | 0.13 | 99 | 1006.4 |
| 20260510093502 | 10 | 180 | 4.8 | 0.0 | 0.00 | 0.00 | 0.13 | 99 | 1006.4 |
| 20260510093002 | 10 | 203 | 6.4 | 0.0 | 0.00 | 0.00 | 0.13 | 99 | 1006.1 |
| 20260510092502 | 10 | 203 | 4.8 | 0.0 | 0.00 | 0.00 | 0.13 | 99 | 1006.4 |
| 20260510091502 | 10 | 203 | 4.8 | 0.0 | 0.00 | 0.00 | 0.13 | 99 | 1006.4 |
| 20260510091002 | 10 | 180 | 4.8 | 0.0 | 0.00 | 0.00 | 0.13 | 99 | 1006.1 |
| 20260510090502 | 10 | 203 | 4.8 | 0.0 | 0.00 | 0.00 | 0.13 | 99 | 1006.1 |
| 20260510085502 | 10 | 158 | 6.4 | 0.0 | 0.00 | 0.00 | 0.13 | 99 | 1006.1 |
| 20260510085002 | 10 | 180 | 3.2 | 0.0 | 0.00 | 0.00 | 0.13 | 99 | 1006.1 |
| 20260510084502 | 10 | 158 | 8.0 | 0.0 | 0.00 | 0.00 | 0.13 | 99 | 1006.1 |
| 20260510084001 | 10 | 180 | 9.7 | 0.0 | 0.00 | 0.00 | 0.13 | 99 | 1006.1 |
| 20260510083507 | 10 | 180 | 4.8 | 0.0 | 0.00 | 0.00 | 0.13 | 99 | 1006.1 |
| 20260510083001 | 10 | 180 | 6.4 | 0.0 | 0.00 | 0.00 | 0.13 | 99 | 1005.8 |
| 20260510082502 | 10 | 225 | 8.0 | 0.0 | 0.00 | 0.00 | 0.13 | 99 | 1006.1 |
| 20260510082002 | 10 | 203 | 4.8 | 0.0 | 0.00 | 0.00 | 0.13 | 99 | 1006.1 |
| 20260510081502 | 10 | 180 | 12.9 | 0.0 | 0.00 | 0.00 | 0.13 | 98 | 1006.1 |
| 20260510080502 | 11 | 180 | 6.4 | 0.0 | 0.00 | 0.00 | 0.13 | 98 | 1006.1 |
| 20260510080003 | 11 | 180 | 11.3 | 0.0 | 0.00 | 0.00 | 0.13 | 99 | 1006.1 |
| 20260510075501 | 11 | 203 | 8.0 | 0.0 | 0.00 | 0.00 | 0.13 | 99 | 1006.1 |
| 20260510075002 | 11 | 203 | 8.0 | 0.0 | 0.03 | 0.00 | 0.13 | 99 | 1005.8 |
| 20260510074502 | 11 | 203 | 4.8 | 0.0 | 0.03 | 0.00 | 0.13 | 99 | 1005.8 |
| 20260510073501 | 10 | 180 | 12.9 | 0.0 | 0.03 | 0.00 | 0.13 | 99 | 1005.8 |
| 20260510073002 | 10 | 315 | 8.0 | 0.0 | 0.03 | 0.00 | 0.13 | 99 | 1005.8 |
| 20260510072002 | 10 | 203 | 9.7 | 0.0 | 0.03 | 0.00 | 0.13 | 99 | 1005.8 |
| 20260510071502 | 10 | 180 | 12.9 | 0.0 | 0.03 | 0.00 | 0.13 | 99 | 1005.8 |
| 20260510071002 | 10 | 203 | 14.5 | 0.0 | 0.08 | 0.00 | 0.13 | 99 | 1005.8 |
| 20260510070501 | 10 | 180 | 12.9 | 0.0 | 0.08 | 0.00 | 0.13 | 99 | 1005.8 |
| 20260510070001 | 10 | 180 | 6.4 | 0.0 | 0.08 | 0.00 | 0.13 | 99 | 1005.4 |
| 20260510065501 | 10 | 180 | 14.5 | 0.0 | 0.05 | 0.00 | 0.10 | 99 | 1005.4 |
| 20260510065002 | 10 | 180 | 8.0 | 0.0 | 0.08 | 0.00 | 0.10 | 99 | 1005.4 |
| 20260510064002 | 10 | 203 | 8.0 | 0.0 | 0.10 | 0.00 | 0.10 | 99 | 1005.4 |
| 20260510063001 | 10 | 158 | 8.0 | 0.0 | 0.10 | 0.00 | 0.10 | 99 | 1005.8 |
| 20260510062501 | 10 | 180 | 9.7 | 0.0 | 0.10 | 0.00 | 0.10 | 99 | 1005.8 |
| 20260510062001 | 10 | 135 | 4.8 | 0.0 | 0.10 | 0.00 | 0.10 | 99 | 1005.8 |
| 20260510061502 | 10 | 203 | 9.7 | 0.0 | 0.08 | 0.00 | 0.08 | 99 | 1005.8 |
| 20260510061002 | 10 | 203 | 12.9 | 0.0 | 0.05 | 0.00 | 0.05 | 99 | 1005.8 |
| 20260510060501 | 10 | 158 | 8.0 | 0.0 | 0.05 | 0.00 | 0.05 | 98 | 1005.8 |
| 20260510060001 | 10 | 203 | 9.7 | 0.0 | 0.05 | 0.00 | 0.05 | 98 | 1005.8 |
| 20260510055502 | 10 | 203 | 14.5 | 0.0 | 0.05 | 0.00 | 0.05 | 97 | 1005.8 |
| 20260510055002 | 10 | 135 | 9.7 | 0.0 | 0.03 | 0.00 | 0.03 | 96 | 1005.8 |
| 20260510054502 | 10 | 158 | 9.7 | 0.0 | 0.00 | 0.00 | 0.00 | 94 | 1005.8 |
| 20260510054002 | 10 | 203 | 11.3 | 0.0 | 0.00 | 0.00 | 0.00 | 93 | 1005.8 |
| 20260510053502 | 11 | 158 | 12.9 | 0.0 | 0.00 | 0.00 | 0.00 | 90 | 1005.8 |
| 20260510053002 | 11 | 203 | 6.4 | 0.0 | 0.00 | 0.00 | 0.00 | 89 | 1005.8 |
| 20260510052501 | 11 | 180 | 6.4 | 0.0 | 0.00 | 0.00 | 0.00 | 88 | 1005.8 |
| 20260510052001 | 11 | 338 | 6.4 | 0.0 | 0.00 | 0.00 | 0.00 | 88 | 1005.8 |
| 20260510051001 | 11 | 180 | 6.4 | 0.0 | 0.00 | 0.00 | 0.00 | 88 | 1005.8 |
| 20260510050502 | 10 | 90 | 9.7 | 0.0 | 0.00 | 0.00 | 0.00 | 88 | 1005.8 |
| 20260510050002 | 10 | 135 | 9.7 | 0.0 | 0.00 | 0.00 | 0.00 | 88 | 1005.8 |
| 20260510044501 | 10 | 180 | 9.7 | 0.0 | 0.00 | 0.00 | 0.00 | 87 | 1005.8 |
| 20260510044002 | 10 | 113 | 11.3 | 0.0 | 0.00 | 0.00 | 0.00 | 87 | 1005.8 |
| 20260510043002 | 10 | 135 | 9.7 | 0.0 | 0.00 | 0.00 | 0.00 | 86 | 1005.4 |
| 20260510042502 | 10 | 158 | 8.0 | 0.0 | 0.00 | 0.00 | 0.00 | 86 | 1005.4 |
| 20260510042001 | 10 | 158 | 12.9 | 0.0 | 0.00 | 0.00 | 0.00 | 86 | 1005.4 |
| 20260510041507 | 10 | 90 | 11.3 | 0.0 | 0.00 | 0.00 | 0.00 | 86 | 1005.4 |
| 20260510041002 | 10 | 113 | 8.0 | 0.0 | 0.00 | 0.00 | 0.00 | 86 | 1005.8 |
| 20260510040502 | 10 | 203 | 14.5 | 0.0 | 0.00 | 0.00 | 0.00 | 86 | 1005.4 |
| 20260510040002 | 10 | 135 | 6.4 | 0.0 | 0.00 | 0.00 | 0.00 | 86 | 1005.4 |
| 20260510035502 | 10 | 135 | 11.3 | 0.0 | 0.00 | 0.00 | 0.00 | 86 | 1005.8 |
| 20260510035001 | 10 | 158 | 11.3 | 0.0 | 0.00 | 0.00 | 0.00 | 86 | 1005.8 |
| 20260510034501 | 10 | 158 | 12.9 | 0.0 | 0.00 | 0.00 | 0.00 | 86 | 1005.8 |
| 20260510033501 | 10 | 135 | 12.9 | 0.0 | 0.00 | 0.00 | 0.00 | 86 | 1005.8 |
| 20260510033001 | 10 | 158 | 11.3 | 0.0 | 0.00 | 0.00 | 0.00 | 85 | 1005.8 |
| 20260510032502 | 10 | 158 | 6.4 | 0.0 | 0.00 | 0.00 | 0.00 | 85 | 1005.8 |
| 20260510032002 | 10 | 113 | 9.7 | 0.0 | 0.00 | 0.00 | 0.00 | 85 | 1005.8 |
| 20260510031002 | 10 | 135 | 8.0 | 0.0 | 0.00 | 0.00 | 0.00 | 85 | 1006.1 |
| 20260510030501 | 10 | 135 | 6.4 | 0.0 | 0.00 | 0.00 | 0.00 | 85 | 1006.1 |
| 20260510030002 | 10 | 135 | 9.7 | 0.0 | 0.00 | 0.00 | 0.00 | 85 | 1006.4 |
| 20260510025502 | 10 | 68 | 3.2 | 0.0 | 0.00 | 0.00 | 0.00 | 85 | 1006.4 |
| 20260510025002 | 10 | 135 | 6.4 | 0.0 | 0.00 | 0.00 | 0.00 | 85 | 1006.4 |
| 20260510024502 | 10 | 158 | 8.0 | 0.0 | 0.00 | 0.00 | 0.00 | 85 | 1006.4 |
| 20260510024001 | 10 | 180 | 6.4 | 0.0 | 0.00 | 0.00 | 0.00 | 85 | 1006.8 |
| 20260510023501 | 10 | 135 | 11.3 | 0.0 | 0.00 | 0.00 | 0.00 | 85 | 1006.4 |
| 20260510023001 | 10 | 113 | 9.7 | 0.0 | 0.00 | 0.00 | 0.00 | 85 | 1006.8 |
| 20260510022502 | 10 | 158 | 3.2 | 0.0 | 0.00 | 0.00 | 0.00 | 85 | 1006.8 |
| 20260510022002 | 10 | 180 | 4.8 | 0.0 | 0.00 | 0.00 | 0.00 | 85 | 1006.8 |
| 20260510021502 | 10 | 158 | 4.8 | 0.0 | 0.00 | 0.00 | 0.00 | 84 | 1006.8 |
| 20260510021002 | 10 | 113 | 4.8 | 0.0 | 0.00 | 0.00 | 0.00 | 84 | 1006.8 |
| 20260510020501 | 10 | 135 | 4.8 | 0.0 | 0.00 | 0.00 | 0.00 | 83 | 1007.1 |
| 20260510015502 | 10 | 68 | 8.0 | 0.0 | 0.00 | 0.00 | 0.00 | 83 | 1006.8 |
| 20260510015002 | 10 | 135 | 14.5 | 0.0 | 0.00 | 0.00 | 0.00 | 82 | 1006.8 |
| 20260510014501 | 11 | 135 | 12.9 | 0.0 | 0.00 | 0.00 | 0.00 | 82 | 1006.8 |
| 20260510014001 | 11 | 113 | 12.9 | 0.0 | 0.00 | 0.00 | 0.00 | 82 | 1006.8 |
| 20260510013501 | 11 | 203 | 19.3 | 0.0 | 0.00 | 0.00 | 0.00 | 82 | 1006.8 |
| 20260510013002 | 11 | 180 | 6.4 | 0.0 | 0.00 | 0.00 | 0.00 | 82 | 1006.8 |
| 20260510012502 | 11 | 113 | 11.3 | 0.0 | 0.00 | 0.00 | 0.00 | 81 | 1006.8 |
| 20260510012001 | 11 | 113 | 11.3 | 0.0 | 0.00 | 0.00 | 0.00 | 81 | 1007.1 |
| 20260510011502 | 11 | 203 | 3.2 | 0.0 | 0.00 | 0.00 | 0.00 | 81 | 1007.1 |
| 20260510011001 | 11 | 203 | 4.8 | 0.0 | 0.00 | 0.00 | 0.00 | 80 | 1006.8 |
| 20260510010501 | 11 | 180 | 6.4 | 0.0 | 0.00 | 0.00 | 0.00 | 80 | 1006.8 |
| 20260510005501 | 11 | 158 | 12.9 | 0.0 | 0.00 | 0.00 | 0.00 | 79 | 1007.1 |
| 20260510005002 | 11 | 180 | 3.2 | 0.0 | 0.00 | 0.00 | 0.00 | 78 | 1007.1 |
| 20260510004502 | 11 | 135 | 9.7 | 0.0 | 0.00 | 0.00 | 0.00 | 78 | 1007.1 |
| 20260510003501 | 11 | 113 | 4.8 | 0.0 | 0.00 | 0.00 | 0.00 | 77 | 1006.8 |
| 20260510003002 | 11 | 158 | 12.9 | 0.0 | 0.00 | 0.00 | 0.00 | 76 | 1006.8 |
| 20260510002502 | 11 | 158 | 8.0 | 0.0 | 0.00 | 0.00 | 0.00 | 76 | 1006.8 |
| 20260510000502 | 12 | 113 | 6.4 | 0.0 | 0.00 | 0.00 | 0.00 | 75 | 1006.8 |
| 20260510000002 | 12 | 113 | 4.8 | 0.0 | 0.00 | 0.00 | 0.00 | 75 | 1006.8 |
| 20260509235002 | 12 | 158 | 16.1 | 0.0 | 0.00 | 0.00 | 0.00 | 73 | 1006.8 |
| 20260509234001 | 12 | 135 | 4.8 | 0.0 | 0.00 | 0.00 | 0.00 | 72 | 1006.8 |
| 20260509233502 | 12 | 113 | 8.0 | 0.0 | 0.00 | 0.00 | 0.00 | 72 | 1006.8 |
| 20260509233001 | 12 | 90 | 11.3 | 0.0 | 0.00 | 0.00 | 0.00 | 71 | 1006.8 |
| 20260509232502 | 12 | 158 | 16.1 | 0.0 | 0.00 | 0.00 | 0.00 | 70 | 1006.8 |
| 20260509232002 | 12 | 90 | 4.8 | 0.0 | 0.00 | 0.00 | 0.00 | 70 | 1007.1 |
| 20260509231502 | 13 | 203 | 9.7 | 0.0 | 0.00 | 0.00 | 0.00 | 69 | 1007.1 |
| 20260509230502 | 13 | 203 | 9.7 | 0.0 | 0.00 | 0.00 | 0.00 | 67 | 1007.1 |
| 20260509230002 | 13 | 68 | 9.7 | 0.0 | 0.00 | 0.00 | 0.00 | 66 | 1007.1 |
| 20260509225502 | 13 | 113 | 8.0 | 0.0 | 0.00 | 0.00 | 0.00 | 66 | 1007.1 |
| 20260509225001 | 13 | 248 | 17.7 | 0.0 | 0.00 | 0.00 | 0.00 | 65 | 1007.1 |
| 20260509224001 | 14 | 180 | 20.9 | 0.0 | 0.00 | 0.00 | 0.00 | 64 | 1007.1 |
| 20260509223501 | 15 | 113 | 17.7 | 0.0 | 0.00 | 0.00 | 0.00 | 60 | 1007.1 |
| 20260509223002 | 15 | 158 | 8.0 | 0.0 | 0.00 | 0.00 | 0.00 | 61 | 1006.8 |
| 20260509222502 | 15 | 180 | 9.7 | 0.0 | 0.00 | 0.00 | 0.00 | 61 | 1006.8 |
| 20260509221502 | 15 | 180 | 6.4 | 0.0 | 0.00 | 0.00 | 0.00 | 59 | 1006.8 |
| 20260509221001 | 15 | 180 | 8.0 | 0.0 | 0.00 | 0.00 | 0.00 | 58 | 1006.8 |
| 20260509220501 | 16 | 180 | 17.7 | 0.0 | 0.00 | 0.00 | 0.00 | 56 | 1006.8 |
| 20260509215001 | 16 | 180 | 9.7 | 0.0 | 0.00 | 0.00 | 0.00 | 53 | 1006.8 |
| 20260509213501 | 16 | 135 | 12.9 | 0.0 | 0.00 | 0.00 | 0.00 | 52 | 1006.8 |
| 20260509213002 | 16 | 225 | 14.5 | 0.0 | 0.00 | 0.00 | 0.00 | 52 | 1006.8 |
| 20260509212502 | 16 | 180 | 14.5 | 0.0 | 0.00 | 0.00 | 0.00 | 52 | 1006.8 |
| 20260509212002 | 16 | 180 | 17.7 | 0.0 | 0.00 | 0.00 | 0.00 | 52 | 1006.8 |
| 20260509211502 | 16 | 158 | 8.0 | 0.0 | 0.00 | 0.00 | 0.00 | 52 | 1006.8 |
| 20260509211002 | 16 | 180 | 19.3 | 0.0 | 0.00 | 0.00 | 0.00 | 52 | 1007.1 |
| 20260509210002 | 16 | 203 | 16.1 | 0.0 | 0.00 | 0.00 | 0.00 | 50 | 1007.1 |
| 20260509205501 | 17 | 203 | 12.9 | 0.0 | 0.00 | 0.00 | 0.00 | 49 | 1007.1 |
| 20260509205002 | 17 | 180 | 6.4 | 0.0 | 0.00 | 0.00 | 0.00 | 49 | 1006.8 |
| 20260509204502 | 17 | 180 | 6.4 | 0.0 | 0.00 | 0.00 | 0.00 | 48 | 1007.1 |
| 20260509204001 | 17 | 203 | 25.7 | 0.0 | 0.00 | 0.00 | 0.00 | 47 | 1007.1 |
| 20260509203502 | 17 | 90 | 8.0 | 0.0 | 0.00 | 0.00 | 0.00 | 46 | 1007.1 |
| 20260509203001 | 17 | 158 | 16.1 | 0.0 | 0.00 | 0.00 | 0.00 | 44 | 1007.1 |
| 20260509202501 | 17 | 158 | 9.7 | 0.0 | 0.00 | 0.00 | 0.00 | 44 | 1007.1 |
| 20260509202002 | 17 | 180 | 11.3 | 0.0 | 0.00 | 0.00 | 0.00 | 43 | 1007.1 |
| 20260509201502 | 17 | 113 | 8.0 | 0.0 | 0.00 | 0.00 | 0.00 | 41 | 1007.1 |
| 20260509201001 | 17 | 180 | 16.1 | 0.0 | 0.00 | 0.00 | 0.00 | 39 | 1007.1 |
| 20260509195501 | 19 | 315 | 9.7 | 0.0 | 0.00 | 0.00 | 0.00 | 39 | 1007.5 |
| 20260509195001 | 19 | 158 | 8.0 | 0.0 | 0.00 | 0.00 | 0.00 | 30 | 1007.1 |
| 20260509193501 | 18 | 158 | 9.7 | 0.0 | 0.00 | 0.00 | 0.00 | 32 | 1007.5 |
| 20260509192502 | 19 | 113 | 6.4 | 0.0 | 0.00 | 0.00 | 0.00 | 30 | 1007.5 |
| 20260509192002 | 18 | 203 | 19.3 | 0.0 | 0.00 | 0.00 | 0.00 | 29 | 1007.1 |
| 20260509191502 | 18 | 113 | 16.1 | 0.0 | 0.00 | 0.00 | 0.00 | 30 | 1007.1 |
| 20260509191002 | 18 | 158 | 6.4 | 0.0 | 0.00 | 0.00 | 0.00 | 32 | 1007.1 |
| 20260509190002 | 19 | 158 | 11.3 | 0.0 | 0.00 | 0.00 | 0.00 | 31 | 1007.5 |
| 20260509185502 | 19 | 203 | 11.3 | 0.0 | 0.00 | 0.00 | 0.00 | 31 | 1007.5 |
| 20260509184502 | 19 | 225 | 9.7 | 0.0 | 0.00 | 0.00 | 0.00 | 30 | 1007.8 |
| 20260509184001 | 18 | 203 | 8.0 | 0.0 | 0.00 | 0.00 | 0.00 | 30 | 1007.8 |
| 20260509183501 | 18 | 180 | 6.4 | 0.0 | 0.00 | 0.00 | 0.00 | 30 | 1008.1 |